sat.trackr.live / text

‹ back to catalog

STARLINK-33889

NORAD 63829 · 2025-092AB

PAYLOAD ACTIVE UNKNOWN

§ Identity

Operator
Country
US
Launch date
2025-05-04
Launch site
AFETR
Launch vehicle
Mass (kg)
RCS (m²)

Purposes: comms

External: N2YO · Heavens-Above · Gunter

§ Orbital elements

Epoch: 2026-09-20T23:28:30.361152Z

Period
94.27 min
Inclination
42.9996°
Eccentricity
0.0000377
Mean motion
15.27587591 rev/d
Perigee alt
482.8 km
Apogee alt
483.3 km
Semi-major
6,861.2 km
B*
4.3440e-4
RAAN
149.4696°
Arg perigee
214.0482°
Mean anomaly
146.0346°
Rev number
7,842

§ Raw data

STARLINK-338891 63829U 25092AB  26263.97812918  .00011713  00000+0  43440-3 0  99902 63829  42.9996 149.4696 0000377 214.0482 146.0346 15.27587591 78421

JSON: /api/v1/satellites/63829 · /tle

For live sub-satellite position, see the globe view (requires WebGL).

§ Visibility from observer

Set your observer location to see the next 7 days of passes ≥ 10°. The values pass through the URL so the page stays shareable.

No JS? Fill the form by hand. The geolocation button needs JavaScript.